Billings, MT

2:59 AM MDT on August 30, 2016 (GMT -0600)
Billings Logan International

Weather History for KBIL - February, 2014

Change the Weather History Date:

Sunday, February 23, 2014

  Actual Average Record
Temperature  
Mean Temperature 13 °F 32 °F  
Max Temperature 15 °F 42 °F 61 °F (1954)
Min Temperature 10 °F 22 °F -20 °F (1965)
Degree Days  
Heating Degree Days 52 33  
Month to date heating degree days 1023 808  
Since 1 July heating degree days 5010 4804  
Cooling Degree Days 0 0  
Month to date cooling degree days 0 0  
Year to date cooling degree days 0 0  
Moisture  
Dew Point 9 °F    
Average Humidity 86    
Maximum Humidity 92    
Minimum Humidity 80    
Precipitation  
Precipitation 0.38 in 0.02 in 0.47 in (1947)
Month to date precipitation 1.18 0.38  
Year to date precipitation 2.20 0.86  
Snow  
Snow 8.80 in 0.20 in 8.80 in (2014)
Month to date snowfall 22.0 4.9  
Since 1 July snowfall 75.2 33.2  
Snow Depth 1.00 in    
Sea Level Pressure  
Sea Level Pressure 30.19 in    
Wind  
Wind Speed 13 mph (NE)    
Max Wind Speed 18 mph    
Max Gust Speed 20 mph    
Visibility 2 miles    
Events Fog , Snow    
T = Trace of Precipitation, MM = Missing Value Source: NWS Daily Summary

Daily Weather History Graph

Daily Weather History Graph

Search for Another Location

Airport or City:

Trip Planner

Search our weather history database for the weather conditions in past years. The results will help you decide how hot, cold, wet, or windy it might be!

Date:

Astronomy

Feb. 23, 2014 Rise Set
Actual Time 7:03 AM MST 5:52 PM MST
Civil Twilight 6:33 AM MST 6:22 PM MST
Nautical Twilight 5:58 AM MST 6:57 PM MST
Astronomical Twilight 5:24 AM MST 7:31 PM MST
Moon 2:13 AM MST (2/23) 11:48 AM MST (2/23)
Length of Visible Light 11h 49m
Length of Day
10h 49m
Last Quarter, 38% of the Moon is Illuminated
Feb 23
Last Quarter
Mar 1
New
Mar 8
First Quarter
Mar 16
Full
Mar 23
Last Quarter

Hourly Weather History & Observations

Time (MST) Temp. Windchill Dew Point Humidity Pressure Visibility Wind Dir Wind Speed Gust Speed Precip Events Conditions
12:53 AM 12.9 °F -0.2 °F 8.1 °F 81% 30.27 in 6.0 mi NE 10.4 mph - 0.00 in Snow Light Snow
1:53 AM 12.9 °F -0.9 °F 8.1 °F 81% 30.28 in 8.0 mi NE 11.5 mph - 0.00 in Snow Light Snow
2:53 AM 12.0 °F -1.3 °F 8.1 °F 84% 30.27 in 8.0 mi ENE 10.4 mph - 0.00 in Snow Light Snow
3:53 AM 12.0 °F -1.3 °F 8.1 °F 84% 30.28 in 5.0 mi NE 10.4 mph - 0.00 in Snow Light Snow
4:16 AM 12.0 °F -1.3 °F 8.1 °F 84% 30.11 in 2.5 mi NE 10.4 mph - 0.00 in Snow Light Snow
4:53 AM 12.0 °F -2.7 °F 8.1 °F 84% 30.29 in 2.0 mi NE 12.7 mph - 0.00 in Snow Light Snow
5:12 AM 12.0 °F -2.0 °F 9.0 °F 88% 30.12 in 2.0 mi NE 11.5 mph - 0.00 in Snow Light Snow
5:23 AM 12.0 °F -1.3 °F 9.0 °F 88% 30.12 in 3.0 mi NE 10.4 mph - 0.00 in Snow Light Snow
5:50 AM 12.2 °F -1.8 °F 8.6 °F 85% 30.12 in 3.0 mi NE 11.5 mph - 0.00 in Snow Light Snow
5:53 AM 12.0 °F -2.7 °F 9.0 °F 88% 30.30 in 2.5 mi NE 12.7 mph - 0.00 in Snow Light Snow
6:28 AM 12.0 °F -4.0 °F 8.1 °F 84% 30.13 in 1.2 mi NE 15.0 mph - 0.01 in Snow Light Snow
6:53 AM 10.9 °F -5.4 °F 8.1 °F 88% 30.30 in 2.5 mi NE 15.0 mph - 0.01 in Snow Light Snow
7:53 AM 10.9 °F -4.1 °F 8.1 °F 88% 30.32 in 2.0 mi NE 12.7 mph - 0.00 in Snow Light Snow
8:53 AM 12.0 °F -3.4 °F 8.1 °F 84% 30.33 in 2.0 mi ENE 13.8 mph - 0.01 in Snow Light Snow
9:53 AM 12.0 °F -4.0 °F 8.1 °F 84% 30.35 in 1.0 mi NE 15.0 mph - 0.00 in Snow Light Snow
10:53 AM 12.9 °F -2.2 °F 9.0 °F 84% 30.35 in 1.0 mi NE 13.8 mph - 0.01 in Snow Light Snow
11:53 AM 14.0 °F -2.0 °F 10.0 °F 84% 30.34 in 1.0 mi NE 16.1 mph - 0.00 in Snow Light Snow
12:53 PM 15.1 °F -0.1 °F 10.9 °F 84% 30.32 in 0.8 mi NE 15.0 mph - 0.01 in Snow Light Snow
1:34 PM 15.1 °F -0.6 °F 10.0 °F 80% 30.13 in 1.5 mi ENE 16.1 mph - 0.00 in Snow Light Snow
2:09 PM 15.1 °F -0.6 °F 10.0 °F 80% 30.12 in 0.8 mi ENE 16.1 mph - 0.00 in Snow Light Snow
2:18 PM 15.1 °F -0.6 °F 10.0 °F 80% 30.12 in 1.0 mi ENE 16.1 mph - 0.01 in Snow Light Snow
2:31 PM 15.1 °F -0.6 °F 10.0 °F 80% 30.11 in 0.5 mi NE 16.1 mph - 0.01 in Snow Snow
2:39 PM 15.1 °F -0.6 °F 10.0 °F 80% 30.11 in 0.2 mi ENE 16.1 mph - 0.01 in Snow Heavy Snow
2:53 PM 15.1 °F -0.6 °F 10.9 °F 84% 30.29 in 0.8 mi ENE 16.1 mph - 0.01 in Snow Light Snow
3:08 PM 15.1 °F -0.6 °F 10.9 °F 84% 30.11 in 0.8 mi NE 16.1 mph - 0.00 in Snow Light Snow
3:18 PM 14.0 °F -0.8 °F 10.0 °F 84% 30.10 in 1.0 mi NE 13.8 mph - 0.01 in Snow Light Snow
3:21 PM 14.0 °F -1.4 °F 10.0 °F 84% 30.10 in 1.0 mi ENE 15.0 mph - 0.01 in Snow Light Snow
3:53 PM 14.0 °F 0.5 °F 10.9 °F 88% 30.28 in 0.5 mi NE 11.5 mph - 0.01 in Fog , Snow Snow
4:53 PM 12.9 °F -1.6 °F 10.0 °F 88% 30.27 in 0.5 mi NE 12.7 mph - 0.03 in Snow Snow
5:10 PM 12.9 °F -1.6 °F 10.0 °F 88% 30.09 in 0.2 mi NE 12.7 mph - 0.01 in Snow Heavy Snow
5:45 PM 12.9 °F -1.6 °F 10.0 °F 88% 30.09 in 0.5 mi NE 12.7 mph - 0.04 in Fog , Snow Snow
5:53 PM 12.9 °F -2.8 °F 9.0 °F 84% 30.27 in 0.8 mi NE 15.0 mph - 0.05 in Snow Light Snow
6:14 PM 12.0 °F -3.4 °F 9.0 °F 88% 30.09 in 1.0 mi NE 13.8 mph - 0.01 in Snow Light Snow
6:22 PM 12.0 °F -2.0 °F 9.0 °F 88% 30.09 in 1.0 mi NE 11.5 mph - 0.01 in Snow Light Snow
6:36 PM 12.0 °F -4.0 °F 9.0 °F 88% 30.08 in 1.5 mi NE 15.0 mph - 0.01 in Snow Light Snow
6:45 PM 12.0 °F -2.0 °F 9.0 °F 88% 30.08 in 1.0 mi NE 11.5 mph - 0.01 in Snow Light Snow
6:53 PM 12.0 °F -1.3 °F 10.0 °F 92% 30.27 in 0.8 mi NE 10.4 mph - 0.02 in Snow Light Snow
7:04 PM 12.0 °F -2.0 °F 9.0 °F 88% 30.08 in 0.8 mi NE 11.5 mph - 0.01 in Snow Light Snow
7:33 PM 12.0 °F -2.0 °F 9.0 °F 88% 30.06 in 0.8 mi NE 11.5 mph - 0.03 in Snow Light Snow
7:53 PM 12.0 °F -2.0 °F 9.0 °F 88% 30.25 in 0.8 mi NE 11.5 mph - 0.04 in Snow Light Snow
8:07 PM 12.0 °F -2.0 °F 9.0 °F 88% 30.05 in 1.0 mi NE 11.5 mph - 0.01 in Snow Light Snow
8:18 PM 12.0 °F -1.3 °F 9.0 °F 88% 30.05 in 0.8 mi NE 10.4 mph - 0.01 in Snow Light Snow
8:53 PM 10.9 °F -4.1 °F 8.1 °F 88% 30.24 in 1.0 mi NE 12.7 mph - 0.03 in Snow Light Snow
9:01 PM 10.9 °F -3.4 °F 8.1 °F 88% 30.04 in 0.8 mi NE 11.5 mph - 0.00 in Snow Light Snow
9:13 PM 10.9 °F -2.6 °F 8.1 °F 88% 30.05 in 0.5 mi NNE 10.4 mph - 0.01 in Fog , Snow Snow
9:41 PM 10.9 °F -2.6 °F 8.1 °F 88% 30.04 in 0.5 mi NNE 10.4 mph - 0.05 in Fog , Snow Snow
9:53 PM 10.9 °F -3.4 °F 8.1 °F 88% 30.22 in 0.5 mi NNE 11.5 mph - 0.07 in Fog , Snow Snow
10:53 PM 10.9 °F -0.8 °F 8.1 °F 88% 30.21 in 0.8 mi NNE 8.1 mph - 0.05 in Snow Light Snow
11:16 PM 10.9 °F -0.8 °F 8.1 °F 88% 30.02 in 1.0 mi NNE 8.1 mph - 0.00 in Snow Light Snow
11:43 PM 10.0 °F -2.9 °F 8.1 °F 92% 30.01 in 0.8 mi NNE 9.2 mph - 0.02 in Snow Light Snow
11:53 PM 10.0 °F -2.9 °F 7.0 °F 87% 30.20 in 0.8 mi NNE 9.2 mph - 0.02 in Snow Light Snow